Content
SEND FEEDBACK

Daily
Averages
Monthly
Summary
French Polynesia

PAPEETE, FRENCH POLYNESIA


Home > Oceania > French Polynesia
Elevation: 7 feet     Latitude: 17 33S     Longitude: 149 36W

WEATHER
 
SELECT A DAY
Number of Records: 208,079;   Date Range: 6/30/96 - 7/20/14
 
SHARE

PRINT THIS DATA

[ ← Previous Day ]
WEATHER ALMANAC - APRIL 8, 2013
[ Next Day → ]
[ °C ]   °F
Weather ElementAverageHighLow
Temperature81.8 °F89.6 °F (2:00 pm)75.2 °F (3:00 am)
Dewpoint71.4 °F73.4 °F (8:00 am)69.8 °F (1:00 am)
Humidity70.3 %89 % (6:00 am)47 % (2:00 pm)
Barometer29.85 in29.90 in (8:00 am)29.80 in (2:00 pm)
Wind Speed4 mph8.1 mph (2:30 pm)
Weather ElementAverage
Visibility8.2 mi
Wind DirectionSSE (160.6 °)

Weather ElementTotal
Precipitation---
Cooling Degree Days17.4 (Base 65)
Growing Degree Days32.4 (Base 50)
Averaged from 55 records on April 8, 2013
WEATHER CONDITIONS BREAKOUT
WIND DIRECTION BREAKOUT
WEATHER BY HOUR - APRIL 8, 2013
[ °C ]   °F
Local TimeTemperatureDewpointHumidityBarometerVisibilityWind DirectionWind SpeedGust SpeedPrecipitationEventsConditions
12:30 AM77.0 °F71.6 °F83 %29.86 in6.2 miSSE (160°)5.8 mphPartly Cloudy
1:00 AM78.8 °F69.8 °F74 %29.86 in6.2 miSSE (160°)5.8 mphPartly Cloudy
1:30 AM77.0 °F69.8 °F78 %29.83 in6.2 miSouth (180°)6.9 mphPartly Cloudy
2:00 AM78.0 °F71.0 °F72 %29.84 in12.0 miSSE (150°)2.3 mphScattered Clouds
2:00 AM77.0 °F69.8 °F78 %29.83 in6.2 miVariable2.3 mphPartly Cloudy
2:30 AM77.0 °F69.8 °F78 %29.83 in6.2 miEast (90°)3.5 mphPartly Cloudy
3:00 AM75.2 °F69.8 °F83 %29.83 in6.2 miEast (100°)4.6 mphPartly Cloudy
3:30 AM75.2 °F69.8 °F83 %29.83 in6.2 miESE (110°)1.2 mph
4:00 AM75.2 °F69.8 °F83 %29.83 in6.2 miESE (120°)2.3 mph
4:30 AM75.2 °F69.8 °F83 %29.83 in6.2 miESE (120°)1.2 mph
5:00 AM76.0 °F70.0 °F78 %29.85 in37.0 miESE (110°)2.3 mphClear
5:00 AM75.2 °F69.8 °F83 %29.83 in6.2 miVariable2.3 mph
5:30 AM75.2 °F69.8 °F83 %29.86 in6.2 miSE (130°)2.3 mph
6:00 AM75.2 °F71.6 °F89 %29.86 in6.2 miVariable2.3 mphPartly Cloudy
6:30 AM77.0 °F71.6 °F83 %29.86 in6.2 miSSE (150°)3.5 mphPartly Cloudy
7:00 AM78.8 °F71.6 °F78 %29.86 in6.2 miVariable2.3 mphPartly Cloudy
7:30 AM80.6 °F71.6 °F74 %29.89 in6.2 miSouth (170°)2.3 mphPartly Cloudy
8:00 AM82.0 °F72.0 °F66 %29.90 in25.0 miCalmPartly Cloudy
8:00 AM82.4 °F73.4 °F74 %29.89 in6.2 miCalmPartly Cloudy
8:30 AM84.2 °F73.4 °F70 %29.89 in6.2 miVariable2.3 mphPartly Cloudy
9:00 AM84.2 °F73.4 °F70 %29.89 in6.2 miVariable2.3 mphPartly Cloudy
9:30 AM86.0 °F73.4 °F66 %29.89 in6.2 miWest (280°)2.3 mphPartly Cloudy
10:00 AM86.0 °F73.4 °F66 %29.89 in6.2 miVariable3.5 mphPartly Cloudy
10:30 AM86.0 °F73.4 °F66 %29.89 in6.2 miWest (270°)4.6 mphPartly Cloudy
11:00 AM87.0 °F71.0 °F51 %29.90 in25.0 miWSW (240°)5.8 mphScattered Clouds
11:00 AM87.8 °F71.6 °F58 %29.89 in6.2 miWSW (240°)5.8 mphPartly Cloudy
11:30 AM87.8 °F71.6 °F58 %29.86 in6.2 miWSW (240°)6.9 mphPartly Cloudy
12:00 PM87.8 °F71.6 °F58 %29.86 in6.2 miWSW (250°)6.9 mphPartly Cloudy
12:30 PM87.8 °F71.6 °F58 %29.83 in6.2 miWest (280°)4.6 mphPartly Cloudy
1:00 PM87.8 °F71.6 °F58 %29.83 in6.2 miWNW (300°)4.6 mphPartly Cloudy
1:30 PM87.8 °F71.6 °F58 %29.83 in6.2 miWNW (290°)5.8 mphPartly Cloudy
2:00 PM89.0 °F71.0 °F47 %29.83 in25.0 miWest (280°)5.8 mphPartly Cloudy
2:00 PM89.6 °F71.6 °F55 %29.80 in6.2 miWest (280°)5.8 mphScattered Clouds
2:30 PM87.8 °F71.6 °F58 %29.80 in6.2 miWNW (300°)8.1 mphScattered Clouds
3:00 PM87.8 °F71.6 °F58 %29.80 in6.2 miWNW (300°)5.8 mphScattered Clouds
3:30 PM87.8 °F71.6 °F58 %29.80 in6.2 miWNW (290°)8.1 mphScattered Clouds
4:00 PM86.0 °F71.6 °F62 %29.80 in6.2 miWNW (300°)8.1 mphScattered Clouds
4:30 PM86.0 °F71.6 °F62 %29.80 in6.2 miNW (310°)6.9 mphScattered Clouds
5:00 PM85.0 °F72.0 °F57 %29.83 in9.0 miWNW (300°)8.1 mphMostly Cloudy
5:00 PM84.2 °F71.6 °F66 %29.83 in6.2 miWNW (300°)8.1 mphScattered Clouds
5:30 PM84.2 °F71.6 °F66 %29.83 in6.2 miWNW (300°)5.8 mphScattered Clouds
6:00 PM84.2 °F71.6 °F66 %29.83 in6.2 miWNW (290°)5.8 mphScattered Clouds
6:30 PM84.2 °F73.4 °F70 %29.83 in6.2 miWNW (300°)6.9 mphPartly Cloudy
7:00 PM82.4 °F73.4 °F74 %29.86 in6.2 miNE (50°)4.6 mphPartly Cloudy
7:30 PM80.6 °F71.6 °F74 %29.86 in6.2 miEast (80°)2.3 mphPartly Cloudy
8:00 PM80.0 °F72.0 °F71 %29.89 in12.0 miEast (80°)3.5 mphScattered Clouds
8:00 PM80.6 °F71.6 °F74 %29.89 in6.2 miEast (90°)3.5 mphPartly Cloudy
8:30 PM80.6 °F71.6 °F74 %29.89 in6.2 miCalmPartly Cloudy
9:00 PM78.8 °F71.6 °F78 %29.86 in6.2 miVariable2.3 mphPartly Cloudy
9:30 PM78.8 °F71.6 °F78 %29.86 in6.2 miEast (100°)3.5 mphPartly Cloudy
10:00 PM78.8 °F71.6 °F78 %29.86 in6.2 miCalmPartly Cloudy
10:30 PM78.8 °F71.6 °F78 %29.86 in6.2 miSE (140°)2.3 mphPartly Cloudy
11:00 PM78.0 °F70.0 °F71 %29.88 in12.0 miSouth (180°)3.5 mphScattered Clouds
11:00 PM78.8 °F69.8 °F74 %29.86 in6.2 miSouth (180°)3.5 mphPartly Cloudy
11:30 PM77.0 °F69.8 °F78 %29.86 in6.2 miEast (80°)1.2 mphPartly Cloudy
Hourly data recorded from NTAA, located miles away from Papeete, French Polynesia







STORIES FROM OUR PARTNERS